[Iaude] MPEC A226: 2019 AG10 [a=1.71,e=0.25,i=4.1,H=24.1]

mpec at mpcdb1.cfa.harvard.edu mpec at mpcdb1.cfa.harvard.edu
Mon Jan 14 07:19:17 EST 2019


M.P.E.C. 2019-A226                               Issued 2019 Jan. 14, 12:16 UT
 
     The Minor Planet Electronic Circulars contain information on unusual
         minor planets and routine data on comets.  They are published
    on behalf of Division F of the International Astronomical Union by the
          Minor Planet Center, Smithsonian Astrophysical Observatory,
                          Cambridge, MA 02138, U.S.A.

             Prepared using the Tamkin Foundation Computer Network

                              MPC at CFA.HARVARD.EDU
            URL https://www.minorplanetcenter.net/    ISSN 1523-6714


                                   2019 AG10
 
Observations:
     K19A10G* C2019 01 09.35573 07 06 29.360+25 07 25.03         22.2 wUEA226F51
     K19A10G  C2019 01 09.36760 07 06 28.846+25 07 16.33         22.3 wUEA226F51
     K19A10G  C2019 01 09.39153 07 06 27.720+25 06 58.37         22.1 wUEA226F51
     K19A10G ^C2019 01 10.38194207 05 54.435+24 54 05.77         22.19GVEA226568
     K19A10G ^C2019 01 10.38288907 05 54.395+24 54 05.15         22.30GVEA226568
     K19A10G ^C2019 01 10.38384207 05 54.350+24 54 04.41         22.26GVEA226568
     K19A10G ^C2019 01 14.38504307 03 49.932+24 01 17.50         22.62GVEA226568
     K19A10G ^C2019 01 14.38599007 03 49.892+24 01 16.79         22.39GVEA226568
     K19A10G ^C2019 01 14.38694107 03 49.854+24 01 16.00         22.42GVEA226568
 
Observer details:
568 Mauna Kea.  Observers R. Wainscoat, D. Woodworth, S. Prunet, L. Wells.
    Measurers R. Weryk, R. Wainscoat.  3.6-m Canada-France-Hawaii Telescope +
    CCD.
F51 Pan-STARRS 1, Haleakala.  Observers J. Bulger, T. Lowe, A. Schultz,
    M. Willman.  Measurers K. Chambers, S. Chastel, L. Denneau, J. Fairlamb,
    H. Flewelling, M. Huber, C.-C. Lin, E. Magnier, Y. Ramanjooloo,
    R. Wainscoat, R. Weryk.  1.8-m Ritchey-Chretien + CCD.
 
Orbital elements:
2019 AG10                                                Earth MOID = 0.2980 AU
Epoch 2019 Apr. 27.0 TT = JDT 2458600.5                 MPC
M  45.33204              (2000.0)            P               Q
n   0.44007020     Peri.  175.13392     -0.36198103     -0.93001576
a   1.7118068      Node   296.07625     +0.85285784     -0.30288004
e   0.2516582      Incl.    4.05808     +0.37630205     -0.20816908
P   2.24           H   24.1           G   0.15           U   7
Residuals in seconds of arc
190109 F51  0.1-  0.1-    190110 568  0.0   0.1-    190114 568  0.1+  0.0
190109 F51  0.3+  0.0     190110 568  0.1+  0.0     190114 568  0.0   0.0
190109 F51  0.0   0.1+    190110 568  0.0   0.0     190114 568  0.0   0.0

Ephemeris:
2019 AG10                a,e,i = 1.71, 0.25, 4                   q = 1.2810
Date    TT    R. A. (2000) Decl.     Delta      r     Elong.  Phase     V
2018 12 15    07 15 23.1 +29 32 27   0.3402  1.3010   155.2    18.5    23.3
...
2018 12 30    07 12 15.5 +27 13 10   0.3059  1.2861   170.6     7.2    22.6
...
2019 01 07    07 07 50.0 +25 37 35   0.2991  1.2821   176.8     2.5    22.3
...
2019 01 13    07 04 30.3 +24 19 38   0.2996  1.2810   172.2     5.9    22.5
2019 01 14    07 04 00.6 +24 06 23   0.3002  1.2810   171.2     6.7    22.5
2019 01 15    07 03 32.5 +23 53 06   0.3008  1.2810   170.1     7.5    22.6
...
2019 01 21    07 01 24.2 +22 33 34   0.3075  1.2821   163.8    12.4    22.8
...
2019 01 29    07 00 50.4 +20 52 01   0.3231  1.2861   155.6    18.4    23.1
...
2019 02 13    07 08 22.6 +18 09 16   0.3713  1.3011   142.3    27.6    23.8

A. U. Tomatic                (C) Copyright 2019 MPC           M.P.E.C. 2019-A226



More information about the Iaude mailing list